TimeEDT,TemperatureF,Dew PointF,Humidity,Sea Level PressureIn,VisibilityMPH,Wind Direction,Wind SpeedMPH,Gust SpeedMPH,PrecipitationIn,Events,Conditions,WindDirDegrees,DateUTC
12:51 AM,73.9,73.0,97,29.82,0.2,South,6.9,-,N/A,,Overcast,180,2013-09-02 04:51:00
1:51 AM,73.9,73.0,97,29.82,0.2,South,9.2,-,N/A,,Overcast,180,2013-09-02 05:51:00
2:51 AM,73.9,73.0,97,29.81,0.2,South,8.1,-,N/A,,Overcast,190,2013-09-02 06:51:00
3:51 AM,73.9,73.9,100,29.79,0.2,SSE,3.5,-,N/A,,Overcast,160,2013-09-02 07:51:00
4:51 AM,73.9,73.0,97,29.78,0.2,South,3.5,-,N/A,,Overcast,190,2013-09-02 08:51:00
5:51 AM,73.9,73.0,97,29.79,0.2,Calm,Calm,-,N/A,,Overcast,0,2013-09-02 09:51:00
6:43 AM,73.4,73.4,100,29.79,0.8,ESE,3.5,-,N/A,,Overcast,110,2013-09-02 10:43:00
6:51 AM,73.9,73.0,97,29.79,0.8,Calm,Calm,-,N/A,,Overcast,0,2013-09-02 10:51:00
7:21 AM,73.4,73.4,100,29.80,2.0,SE,5.8,-,N/A,,Overcast,140,2013-09-02 11:21:00
7:51 AM,73.9,73.0,97,29.81,2.0,ESE,4.6,-,N/A,,Overcast,110,2013-09-02 11:51:00
8:35 AM,75.2,71.6,89,29.79,6.0,ESE,4.6,-,N/A,,Overcast,110,2013-09-02 12:35:00
8:51 AM,77.0,72.0,84,29.80,7.0,ENE,4.6,-,N/A,,Overcast,60,2013-09-02 12:51:00
9:51 AM,80.1,72.0,76,29.80,7.0,ENE,3.5,-,N/A,,Mostly Cloudy,60,2013-09-02 13:51:00
10:32 AM,78.8,73.4,83,29.79,9.0,ESE,8.1,-,N/A,,Mostly Cloudy,110,2013-09-02 14:32:00
10:51 AM,79.0,73.0,82,29.80,10.0,East,4.6,-,N/A,,Mostly Cloudy,100,2013-09-02 14:51:00
11:51 AM,82.0,73.0,74,29.80,9.0,East,5.8,-,N/A,,Mostly Cloudy,80,2013-09-02 15:51:00
12:51 PM,79.0,73.0,82,29.78,10.0,SSE,8.1,-,N/A,,Overcast,150,2013-09-02 16:51:00
1:17 PM,77.0,73.4,89,29.78,6.0,SE,5.8,-,N/A,,Overcast,130,2013-09-02 17:17:00
1:35 PM,77.0,73.4,89,29.78,6.0,South,9.2,-,N/A,,Overcast,170,2013-09-02 17:35:00
1:51 PM,77.0,72.0,84,29.78,6.0,SSE,8.1,-,N/A,,Haze,160,2013-09-02 17:51:00
2:51 PM,77.0,72.0,84,29.77,6.0,South,8.1,-,N/A,,Haze,190,2013-09-02 18:51:00
3:51 PM,75.0,73.0,94,29.75,5.0,SSW,4.6,-,0.00,Rain,Light Rain,210,2013-09-02 19:51:00
4:05 PM,75.2,73.4,94,29.75,4.0,SSW,4.6,-,0.00,Rain,Light Rain,200,2013-09-02 20:05:00
4:10 PM,77.0,73.4,89,29.75,5.0,SSW,5.8,-,0.00,Rain,Light Rain,210,2013-09-02 20:10:00
4:37 PM,78.8,73.4,83,29.74,6.0,South,6.9,-,0.00,,Mostly Cloudy,180,2013-09-02 20:37:00
4:51 PM,79.0,73.9,84,29.75,5.0,South,6.9,-,0.00,,Haze,180,2013-09-02 20:51:00
5:09 PM,77.0,73.4,89,29.75,6.0,SSW,6.9,-,N/A,,Mostly Cloudy,200,2013-09-02 21:09:00
5:48 PM,77.0,73.4,89,29.74,8.0,South,6.9,-,N/A,,Mostly Cloudy,190,2013-09-02 21:48:00
5:51 PM,77.0,73.0,88,29.74,8.0,South,6.9,-,N/A,,Mostly Cloudy,190,2013-09-02 21:51:00
6:51 PM,77.0,73.0,88,29.74,9.0,South,5.8,-,N/A,,Mostly Cloudy,170,2013-09-02 22:51:00
7:51 PM,73.9,71.1,91,29.73,10.0,South,8.1,-,N/A,,Mostly Cloudy,190,2013-09-02 23:51:00
8:51 PM,73.0,71.1,93,29.74,10.0,SSW,8.1,-,N/A,,Scattered Clouds,200,2013-09-03 00:51:00
9:51 PM,73.0,71.1,93,29.75,10.0,SSW,13.8,-,N/A,,Scattered Clouds,200,2013-09-03 01:51:00
10:51 PM,73.0,70.0,90,29.75,10.0,SSW,9.2,-,N/A,,Scattered Clouds,210,2013-09-03 02:51:00
11:51 PM,73.0,70.0,90,29.76,9.0,SW,5.8,-,N/A,,Scattered Clouds,220,2013-09-03 03:51:00